| time (UTC) | temp C | wind direction | speed KPH | gust KPH | rain 1hr cm | rain 24hr cm | rain mn cm | humidity % | barometer mb |
| 20260504081523 | 15 | 240 | 12.9 | 20.9 | 0.00 | 0.00 | 0.00 | 43 | 1024.2 |
| 20260504044522 | 11 | 296 | 3.2 | 4.8 | 0.00 | 0.00 | 0.00 | 57 | 1023.2 |
| 20260504043018 | 10 | 295 | 3.2 | 3.2 | 0.00 | 0.00 | 0.00 | 59 | 1023.0 |
| 20260504041520 | 10 | 286 | 1.6 | 3.2 | 0.00 | 0.00 | 0.00 | 66 | 1022.9 |
| 20260504040028 | 9 | 290 | 1.6 | 3.2 | 0.00 | 0.00 | 0.00 | 76 | 1022.8 |
| 20260504034528 | 9 | 298 | 1.6 | 4.8 | 0.00 | 0.00 | 0.00 | 86 | 1022.7 |
| 20260504033016 | 9 | 288 | 1.6 | 1.6 | 0.00 | 0.00 | 0.00 | 84 | 1022.6 |
| 20260504031519 | 9 | 281 | 1.6 | 3.2 | 0.00 | 0.00 | 0.00 | 85 | 1022.7 |
| 20260504030036 | 9 | 282 | 1.6 | 1.6 | 0.00 | 0.00 | 0.00 | 85 | 1022.7 |
| 20260504024528 | 9 | 274 | 1.6 | 1.6 | 0.00 | 0.00 | 0.00 | 84 | 1022.8 |
| 20260504023028 | 9 | 281 | 1.6 | 3.2 | 0.00 | 0.00 | 0.00 | 82 | 1023.0 |
| 20260504021517 | 9 | 275 | 1.6 | 3.2 | 0.00 | 0.00 | 0.00 | 80 | 1023.1 |
| 20260504020022 | 9 | 283 | 3.2 | 4.8 | 0.00 | 0.00 | 0.00 | 75 | 1023.1 |
| 20260504014523 | 9 | 268 | 3.2 | 6.4 | 0.00 | 0.00 | 0.00 | 71 | 1023.0 |
| 20260504013028 | 9 | 262 | 4.8 | 4.8 | 0.00 | 0.00 | 0.00 | 77 | 1023.0 |
| 20260504011527 | 9 | 277 | 3.2 | 3.2 | 0.00 | 0.00 | 0.00 | 68 | 1022.9 |
| 20260504010018 | 8 | 295 | 1.6 | 1.6 | 0.00 | 0.00 | 0.00 | 66 | 1023.0 |
| 20260504004524 | 8 | 295 | 3.2 | 4.8 | 0.00 | 0.00 | 0.00 | 72 | 1023.0 |
| 20260504003006 | 8 | 278 | 3.2 | 4.8 | 0.00 | 0.00 | 0.00 | 71 | 1023.1 |
| 20260504001512 | 8 | 279 | 3.2 | 3.2 | 0.00 | 0.00 | 0.00 | 68 | 1023.0 |
| 20260504000016 | 8 | 340 | 0.0 | 1.6 | 0.00 | 0.00 | 0.00 | 66 | 1023.0 |
| 20260503234530 | 8 | 356 | 1.6 | 3.2 | 0.00 | 0.00 | 0.00 | 71 | 1023.1 |
| 20260503233005 | 8 | 4 | 1.6 | 3.2 | 0.00 | 0.00 | 0.00 | 74 | 1023.2 |
| 20260503231508 | 8 | 270 | 0.0 | 0.0 | 0.00 | 0.00 | 0.00 | 73 | 1023.4 |
| 20260503230012 | 8 | 270 | 0.0 | 0.0 | 0.00 | 0.00 | 0.00 | 74 | 1023.5 |
| 20260503224519 | 9 | 270 | 0.0 | 3.2 | 0.00 | 0.00 | 0.00 | 70 | 1023.7 |
| 20260503223020 | 9 | 266 | 3.2 | 4.8 | 0.00 | 0.00 | 0.00 | 68 | 1023.8 |
| 20260503221525 | 9 | 311 | 0.0 | 6.4 | 0.00 | 0.00 | 0.00 | 61 | 1023.7 |
| 20260503220024 | 9 | 297 | 6.4 | 6.4 | 0.00 | 0.00 | 0.00 | 68 | 1023.7 |
| 20260503214510 | 10 | 350 | 0.0 | 1.6 | 0.00 | 0.00 | 0.00 | 57 | 1023.6 |
| 20260503213016 | 10 | 327 | 1.6 | 6.4 | 0.00 | 0.00 | 0.00 | 60 | 1023.5 |
| 20260503211522 | 10 | 335 | 1.6 | 4.8 | 0.00 | 0.00 | 0.00 | 63 | 1023.5 |
| 20260503210027 | 10 | 356 | 3.2 | 4.8 | 0.00 | 0.00 | 0.00 | 66 | 1023.6 |
| 20260503204509 | 9 | 288 | 1.6 | 3.2 | 0.00 | 0.00 | 0.00 | 72 | 1023.6 |
| 20260503203026 | 9 | 351 | 0.0 | 4.8 | 0.00 | 0.00 | 0.00 | 72 | 1023.3 |
| 20260503201520 | 9 | 348 | 1.6 | 4.8 | 0.00 | 0.00 | 0.00 | 72 | 1023.2 |
| 20260503200024 | 9 | 3 | 3.2 | 3.2 | 0.00 | 0.00 | 0.00 | 71 | 1023.3 |
| 20260503194526 | 9 | 2 | 0.0 | 3.2 | 0.00 | 0.00 | 0.00 | 71 | 1023.4 |
| 20260503193014 | 9 | 297 | 1.6 | 6.4 | 0.00 | 0.00 | 0.00 | 71 | 1023.5 |
| 20260503191521 | 10 | 265 | 3.2 | 4.8 | 0.00 | 0.00 | 0.00 | 71 | 1023.4 |
| 20260503190021 | 8 | 8 | 0.0 | 4.8 | 0.00 | 0.00 | 0.00 | 74 | 1023.2 |
| 20260503184526 | 9 | 10 | 1.6 | 4.8 | 0.00 | 0.00 | 0.00 | 74 | 1023.0 |
| 20260503183042 | 10 | 8 | 3.2 | 4.8 | 0.00 | 0.00 | 0.00 | 71 | 1023.0 |
| 20260503181512 | 10 | 41 | 3.2 | 4.8 | 0.00 | 0.00 | 0.00 | 67 | 1022.8 |
| 20260503180020 | 11 | 323 | 1.6 | 4.8 | 0.00 | 0.00 | 0.00 | 64 | 1022.8 |
| 20260503174521 | 11 | 311 | 3.2 | 8.0 | 0.00 | 0.00 | 0.00 | 63 | 1022.6 |
| 20260503173026 | 11 | 49 | 0.0 | 4.8 | 0.00 | 0.00 | 0.00 | 62 | 1022.6 |
| 20260503171528 | 12 | 264 | 3.2 | 8.0 | 0.00 | 0.00 | 0.00 | 63 | 1022.3 |